• In Deutschland
  • Länderverzeichnis
  • Für 7 Tage
  • Wassertemperatur
  • Satellitenkarten
  • Wetterkarte
  • Widgets
  • user-avatar
    Anmelden

    Stündliche Wetter Starnberg

    Heute, 23 Juli, Montag

    Zeit Temperatur Niederschläge Wind Luftdruck Luftfeuchtigkeit
    00:00 +16°C° 0,3 mm 1 m/S 710 mmHg 95%
    01:00 +15°C° 0,3 mm 1 m/S 710 mmHg 95%
    02:00 +15°C° 0,2 mm 1 m/S 710 mmHg 95%
    03:00 +15°C° 0,2 mm 1 m/S 710 mmHg 96%
    04:00 +14°C° 0,2 mm 1 m/S 710 mmHg 96%
    05:00 +15°C° 0,3 mm 1 m/S 710 mmHg 95%
    06:00 +16°C° 0,3 mm 1 m/S 711 mmHg 95%
    07:00 +18°C° 0,3 mm 1 m/S 711 mmHg 94%
    08:00 +19°C° 0,2 mm 1 m/S 711 mmHg 90%
    09:00 +20°C° 0,2 mm 1 m/S 711 mmHg 86%
    10:00 +21°C° 0,2 mm 1 m/S 711 mmHg 82%
    11:00 +23°C° 0,5 mm 1 m/S 712 mmHg 76%
    12:00 +24°C° 0,5 mm 1 m/S 712 mmHg 70%
    13:00 +25°C° 0,5 mm 1 m/S 712 mmHg 64%
    14:00 +25°C° 0,4 mm 1 m/S 712 mmHg 65%
    15:00 +25°C° 0,4 mm 1 m/S 711 mmHg 66%
    16:00 +25°C° 0,4 mm 1 m/S 711 mmHg 67%
    17:00 +24°C° 0,3 mm 1 m/S 712 mmHg 72%
    18:00 +23°C° 0,3 mm 1 m/S 712 mmHg 77%
    19:00 +22°C° 0,3 mm 1 m/S 712 mmHg 83%
    20:00 +21°C° 0,1 mm 1 m/S 712 mmHg 85%
    21:00 +19°C° 0,1 mm 1 m/S 712 mmHg 88%
    22:00 +18°C° 0,1 mm 1 m/S 712 mmHg 91%
    23:00 +16°C° 0 mm 1 m/S 712 mmHg 92%

    Morgen, 24 Juli, Dienstag

    Zeit Temperatur Niederschläge Wind Luftdruck Luftfeuchtigkeit
    00:00 +16°C° 0 mm 1 m/S 712 mmHg 92%
    01:00 +16°C° 0 mm 1 m/S 712 mmHg 93%
    02:00 +15°C° 0 mm 1 m/S 711 mmHg 93%
    03:00 +15°C° 0 mm 1 m/S 711 mmHg 92%
    04:00 +15°C° 0 mm 1 m/S 711 mmHg 92%
    05:00 +16°C° 0 mm 1 m/S 711 mmHg 90%
    06:00 +18°C° 0 mm 1 m/S 711 mmHg 88%
    07:00 +19°C° 0 mm 1 m/S 711 mmHg 85%
    08:00 +21°C° 0 mm 1 m/S 711 mmHg 78%
    09:00 +23°C° 0 mm 2 m/S 711 mmHg 70%
    10:00 +25°C° 0 mm 2 m/S 711 mmHg 63%
    11:00 +26°C° 0 mm 2 m/S 711 mmHg 61%
    12:00 +26°C° 0 mm 3 m/S 710 mmHg 58%
    13:00 +27°C° 0 mm 3 m/S 710 mmHg 56%
    14:00 +27°C° 0 mm 3 m/S 710 mmHg 57%
    15:00 +27°C° 0 mm 3 m/S 710 mmHg 58%
    16:00 +27°C° 0 mm 3 m/S 709 mmHg 59%
    17:00 +26°C° 0 mm 3 m/S 709 mmHg 65%
    18:00 +25°C° 0 mm 2 m/S 709 mmHg 71%
    19:00 +23°C° 0 mm 2 m/S 709 mmHg 77%
    20:00 +21°C° 0 mm 2 m/S 709 mmHg 82%
    21:00 +20°C° 0 mm 1 m/S 710 mmHg 86%
    22:00 +19°C° 0 mm 1 m/S 710 mmHg 90%
    23:00 +18°C° 0 mm 1 m/S 710 mmHg 91%

    übermorgen, 25 Juli, Mittwoch

    Zeit Temperatur Niederschläge Wind Luftdruck Luftfeuchtigkeit
    00:00 +18°C° 0 mm 1 m/S 710 mmHg 92%
    01:00 +16°C° 0 mm 1 m/S 710 mmHg 92%
    02:00 +16°C° 0 mm 1 m/S 710 mmHg 93%
    03:00 +16°C° 0 mm 1 m/S 710 mmHg 93%
    04:00 +15°C° 0 mm 1 m/S 710 mmHg 94%
    05:00 +18°C° 0 mm 1 m/S 710 mmHg 91%
    06:00 +17°C° 0 mm 0 m/S 710 mmHg 88%
    07:00 +18°C° 0 mm 0 m/S 710 mmHg 85%
    08:00 +22°C° 0 mm 1 m/S 710 mmHg 77%
    09:00 +24°C° 0 mm 1 m/S 711 mmHg 69%
    10:00 +26°C° 0 mm 1 m/S 711 mmHg 61%
    11:00 +27°C° 0 mm 2 m/S 711 mmHg 57%
    12:00 +27°C° 0 mm 2 m/S 710 mmHg 54%
    13:00 +28°C° 0 mm 2 m/S 710 mmHg 50%
    14:00 +28°C° 0 mm 2 m/S 710 mmHg 51%
    15:00 +28°C° 0 mm 2 m/S 710 mmHg 52%
    16:00 +28°C° 0 mm 2 m/S 710 mmHg 53%
    17:00 +27°C° 0 mm 2 m/S 710 mmHg 60%
    18:00 +25°C° 0 mm 1 m/S 710 mmHg 67%
    19:00 +24°C° 0 mm 1 m/S 710 mmHg 74%
    20:00 +23°C° 0 mm 1 m/S 710 mmHg 78%
    21:00 +21°C° 0 mm 1 m/S 710 mmHg 82%
    22:00 +20°C° 0 mm 1 m/S 710 mmHg 86%
    23:00 +19°C° 0 mm 1 m/S 710 mmHg 87%

    26 Juli, Donnerstag

    Zeit Temperatur Niederschläge Wind Luftdruck Luftfeuchtigkeit
    00:00 +19°C° 0 mm 1 m/S 710 mmHg 89%
    01:00 +18°C° 0 mm 1 m/S 710 mmHg 90%
    02:00 +18°C° 0 mm 1 m/S 710 mmHg 91%
    03:00 +18°C° 0 mm 1 m/S 710 mmHg 91%
    04:00 +16°C° 0 mm 1 m/S 710 mmHg 91%
    05:00 +18°C° 0 mm 1 m/S 710 mmHg 87%
    06:00 +20°C° 0 mm 1 m/S 710 mmHg 83%
    07:00 +19°C° 0 mm 0 m/S 711 mmHg 79%
    08:00 +23°C° 0 mm 1 m/S 711 mmHg 74%
    09:00 +25°C° 0 mm 1 m/S 711 mmHg 68%
    10:00 +27°C° 0 mm 1 m/S 711 mmHg 63%
    11:00 +27°C° 0,1 mm 1 m/S 711 mmHg 60%
    12:00 +28°C° 0,1 mm 2 m/S 711 mmHg 57%
    13:00 +28°C° 0,1 mm 2 m/S 710 mmHg 54%
    14:00 +28°C° 0,2 mm 2 m/S 710 mmHg 56%
    15:00 +28°C° 0,2 mm 2 m/S 710 mmHg 58%
    16:00 +28°C° 0,2 mm 2 m/S 710 mmHg 60%
    17:00 +27°C° 0,3 mm 2 m/S 710 mmHg 66%
    18:00 +25°C° 0,3 mm 1 m/S 710 mmHg 72%
    19:00 +24°C° 0,3 mm 1 m/S 710 mmHg 78%
    20:00 +23°C° 0,1 mm 1 m/S 710 mmHg 81%
    21:00 +21°C° 0,1 mm 1 m/S 711 mmHg 83%
    22:00 +20°C° 0,1 mm 1 m/S 711 mmHg 86%
    23:00 +19°C° 0 mm 1 m/S 711 mmHg 88%

    27 Juli, Freitag

    Zeit Temperatur Niederschläge Wind Luftdruck Luftfeuchtigkeit
    00:00 +19°C° 0 mm 1 m/S 711 mmHg 89%
    01:00 +18°C° 0 mm 1 m/S 711 mmHg 90%
    02:00 +18°C° 0 mm 1 m/S 710 mmHg 91%
    03:00 +18°C° 0 mm 1 m/S 710 mmHg 91%
    04:00 +16°C° 0 mm 1 m/S 710 mmHg 91%
    05:00 +18°C° 0 mm 1 m/S 710 mmHg 89%
    06:00 +20°C° 0 mm 1 m/S 711 mmHg 86%
    07:00 +21°C° 0 mm 1 m/S 711 mmHg 83%
    08:00 +23°C° 0,1 mm 1 m/S 711 mmHg 75%
    09:00 +23°C° 0,1 mm 0 m/S 711 mmHg 68%
    10:00 +25°C° 0,1 mm 0 m/S 711 mmHg 61%
    11:00 +28°C° 0 mm 1 m/S 711 mmHg 56%
    12:00 +29°C° 0 mm 1 m/S 711 mmHg 52%
    13:00 +29°C° 0 mm 1 m/S 710 mmHg 48%
    14:00 +29°C° 0 mm 2 m/S 710 mmHg 49%
    15:00 +29°C° 0 mm 2 m/S 710 mmHg 51%
    16:00 +29°C° 0 mm 2 m/S 710 mmHg 52%
    17:00 +27°C° 0,2 mm 2 m/S 710 mmHg 60%
    18:00 +26°C° 0,2 mm 1 m/S 710 mmHg 67%
    19:00 +25°C° 0,2 mm 1 m/S 710 mmHg 75%
    20:00 +23°C° 0,1 mm 1 m/S 710 mmHg 78%
    21:00 +22°C° 0,1 mm 1 m/S 710 mmHg 80%
    22:00 +20°C° 0,1 mm 1 m/S 711 mmHg 83%
    23:00 +20°C° 0 mm 1 m/S 710 mmHg 84%

    28 Juli, Samstag

    Zeit Temperatur Niederschläge Wind Luftdruck Luftfeuchtigkeit
    00:00 +19°C° 0 mm 1 m/S 710 mmHg 86%
    01:00 +19°C° 0 mm 1 m/S 710 mmHg 88%
    02:00 +18°C° 0 mm 2 m/S 710 mmHg 88%
    03:00 +17°C° 0 mm 2 m/S 710 mmHg 89%
    04:00 +17°C° 0 mm 2 m/S 710 mmHg 89%
    05:00 +18°C° 0 mm 2 m/S 710 mmHg 87%
    06:00 +20°C° 0 mm 1 m/S 711 mmHg 84%
    07:00 +21°C° 0 mm 1 m/S 711 mmHg 82%
    08:00 +23°C° 0,1 mm 1 m/S 711 mmHg 76%
    09:00 +25°C° 0,1 mm 1 m/S 711 mmHg 69%
    10:00 +27°C° 0,1 mm 1 m/S 711 mmHg 63%
    11:00 +28°C° 0,1 mm 1 m/S 711 mmHg 58%
    12:00 +29°C° 0,1 mm 1 m/S 711 mmHg 53%
    13:00 +29°C° 0,1 mm 2 m/S 711 mmHg 48%
    14:00 +29°C° 0 mm 2 m/S 711 mmHg 49%
    15:00 +29°C° 0 mm 2 m/S 711 mmHg 50%
    16:00 +29°C° 0 mm 2 m/S 711 mmHg 51%
    17:00 +28°C° 0,1 mm 2 m/S 711 mmHg 58%
    18:00 +26°C° 0,1 mm 1 m/S 711 mmHg 65%
    19:00 +25°C° 0,1 mm 1 m/S 711 mmHg 71%
    20:00 +24°C° 0 mm 1 m/S 711 mmHg 74%
    21:00 +22°C° 0 mm 1 m/S 711 mmHg 76%
    22:00 +21°C° 0 mm 1 m/S 711 mmHg 79%
    23:00 +20°C° 0 mm 1 m/S 711 mmHg 81%
    Mehr zeigen